FW3849 Weather Reports


time (UTC)temp
F
wind
direction
speed
knots
gust
knots
rain 1hr
in
rain 24hr
in
rain mn
in
humidity
%
barometer
mb
20260509142057 70 205 4.3 8.7 0.00 0.00 0.00 59 1012.3
20260509141553 68 202 6.1 8.7 0.00 0.00 0.00 60 1012.3
20260509140553 68 164 4.3 8.7 0.00 0.00 0.00 60 1012.3
20260509135551 67 187 4.3 7.8 0.00 0.00 0.00 63 1012.2
20260509135050 67 147 4.3 8.7 0.00 0.00 0.00 64 1012.1
20260509134623 66 178 4.3 9.6 0.00 0.00 0.00 65 1012.1
20260509134051 66 183 4.3 9.6 0.00 0.00 0.00 67 1012.0
20260509133546 65 181 3.5 8.7 0.00 0.00 0.00 68 1012.1
20260509133047 64 198 4.3 7.8 0.00 0.00 0.00 68 1012.1
20260509132544 64 181 5.2 7.8 0.00 0.00 0.00 68 1012.2
20260509132043 64 154 3.5 7.8 0.00 0.00 0.00 68 1012.3
20260509131549 63 187 2.6 7.0 0.00 0.00 0.00 68 1012.4
20260509130540 63 193 1.7 4.3 0.00 0.00 0.00 68 1012.3
20260509130041 63 117 0.9 2.6 0.00 0.00 0.00 68 1012.2
20260509125539 62 37 0.0 2.6 0.00 0.00 0.00 68 1012.3
20260509125039 62 22 0.0 1.7 0.00 0.00 0.00 69 1012.3
20260509124539 62 20 0.0 2.6 0.00 0.00 0.00 69 1012.3
20260509124040 61 20 0.9 2.6 0.00 0.00 0.00 69 1012.3
20260509123538 61 20 1.7 2.6 0.00 0.00 0.00 69 1012.4
20260509123038 60 350 0.0 1.7 0.00 0.00 0.00 67 1012.2
20260509122537 61 350 0.0 1.7 0.00 0.00 0.00 67 1012.1
20260509122036 61 350 0.9 1.7 0.00 0.00 0.00 67 1012.2
20260509121535 61 350 0.9 1.7 0.00 0.00 0.00 67 1012.1
20260509120541 61 351 0.0 1.7 0.00 0.00 0.00 66 1011.8
20260509120043 61 351 0.0 1.7 0.00 0.00 0.00 66 1011.7
20260509115539 61 351 0.0 0.9 0.00 0.00 0.00 66 1011.6
20260509115039 61 351 0.0 0.9 0.00 0.00 0.00 66 1011.5
20260509114543 61 351 0.0 0.9 0.00 0.00 0.00 66 1011.4
20260509114038 61 351 0.0 1.7 0.00 0.00 0.00 65 1011.5
20260509113541 62 351 0.0 2.6 0.00 0.00 0.00 65 1011.6
20260509113039 62 351 0.9 2.6 0.00 0.00 0.00 65 1011.4
20260509112536 62 351 0.0 1.7 0.00 0.00 0.00 66 1011.4
20260509112036 62 351 0.0 1.7 0.00 0.00 0.00 66 1011.5
20260509111535 62 351 0.0 2.6 0.00 0.00 0.00 65 1011.3
20260509110528 62 351 0.0 2.6 0.00 0.00 0.00 65 1011.5
20260509110029 62 351 0.9 2.6 0.00 0.00 0.00 65 1011.6
20260509105529 62 351 0.9 2.6 0.00 0.00 0.00 65 1011.6
20260509105031 62 351 0.9 2.6 0.00 0.00 0.00 65 1011.7
20260509104527 63 351 0.9 1.7 0.00 0.00 0.00 65 1011.5
20260509104026 63 351 0.0 1.7 0.00 0.00 0.00 65 1011.4
20260509103525 63 351 0.0 1.7 0.00 0.00 0.00 65 1011.4
20260509103025 63 351 0.0 3.5 0.00 0.00 0.00 65 1011.4
20260509102523 63 351 0.9 3.5 0.00 0.00 0.00 64 1011.5
20260509102027 63 289 1.7 3.5 0.00 0.00 0.00 64 1011.5
20260509101534 64 216 0.0 0.0 0.00 0.00 0.00 64 1011.3
20260509100523 64 215 0.0 1.7 0.00 0.00 0.00 64 1011.5
20260509100025 64 215 0.0 1.7 0.00 0.00 0.00 64 1011.5
20260509095523 64 215 0.0 0.9 0.00 0.00 0.00 64 1011.4
20260509095023 64 215 0.0 2.6 0.00 0.00 0.00 64 1011.5
20260509094523 64 215 0.0 2.6 0.00 0.00 0.00 64 1011.3
20260509094022 64 215 0.9 2.6 0.00 0.00 0.00 63 1011.2
20260509093523 65 216 0.9 3.5 0.00 0.00 0.00 63 1011.1
20260509093023 65 216 1.7 3.5 0.00 0.00 0.00 64 1011.1
20260509092522 65 227 1.7 3.5 0.00 0.00 0.00 64 1011.1
20260509092026 65 103 0.0 2.6 0.00 0.00 0.00 64 1011.3
20260509091523 64 103 2.6 4.3 0.00 0.00 0.00 64 1011.2
20260509090523 64 64 1.7 3.5 0.00 0.00 0.00 64 1011.1
20260509090022 64 100 0.0 1.7 0.00 0.00 0.00 64 1010.8
20260509085522 65 100 0.9 1.7 0.00 0.00 0.00 64 1010.6
20260509085021 65 100 0.0 1.7 0.00 0.00 0.00 64 1010.6
20260509084522 65 100 0.0 2.6 0.00 0.00 0.00 64 1010.6
20260509084021 65 101 0.9 2.6 0.00 0.00 0.00 64 1010.6
20260509083522 65 97 0.9 3.5 0.00 0.00 0.00 64 1010.6
20260509083021 65 207 0.0 3.5 0.00 0.00 0.00 64 1010.5
20260509082522 65 200 1.7 2.6 0.00 0.00 0.00 64 1010.4
20260509082020 65 57 0.0 3.5 0.00 0.00 0.00 64 1010.6
20260509081521 65 57 1.7 3.5 0.00 0.00 0.00 64 1010.7
20260509080522 66 66 0.0 1.7 0.00 0.00 0.00 63 1010.6
20260509080023 66 66 0.0 1.7 0.00 0.00 0.00 63 1010.6
20260509075522 66 64 0.9 1.7 0.00 0.00 0.00 62 1010.6
20260509075022 67 63 0.0 0.9 0.00 0.00 0.00 63 1010.7
20260509074522 67 63 0.0 1.7 0.00 0.00 0.00 62 1010.7
20260509074021 67 63 0.0 2.6 0.00 0.00 0.00 62 1010.8
20260509073523 67 63 0.9 2.6 0.00 0.00 0.00 62 1010.9
20260509073021 67 63 1.7 2.6 0.00 0.00 0.00 62 1010.8
20260509072521 67 62 0.9 2.6 0.00 0.00 0.00 62 1010.8
20260509072023 67 62 0.0 2.6 0.00 0.00 0.00 62 1010.9
20260509071520 67 62 0.0 4.3 0.00 0.00 0.00 62 1010.9
20260509070526 67 62 0.0 4.3 0.00 0.00 0.00 62 1010.8
20260509070022 67 62 2.6 4.3 0.00 0.00 0.00 61 1010.7
20260509065521 67 48 0.9 2.6 0.00 0.00 0.00 60 1010.7
20260509065021 68 61 0.9 2.6 0.00 0.00 0.00 60 1010.5
20260509064521 68 147 0.9 3.5 0.00 0.00 0.00 59 1010.4
20260509064022 68 162 0.9 5.2 0.00 0.00 0.00 59 1010.4
20260509063524 68 177 1.7 5.2 0.00 0.00 0.00 60 1010.4
20260509063021 68 193 0.9 3.5 0.00 0.00 0.00 60 1010.3
20260509062521 68 227 0.9 4.3 0.00 0.00 0.00 59 1010.3
20260509062021 68 122 2.6 4.3 0.00 0.00 0.00 59 1010.3
20260509061521 70 92 1.7 7.0 0.00 0.00 0.00 57 1010.3
20260509061124 70 92 1.7 7.0 0.00 0.00 0.00 57 1010.2
20260509060518 70 104 1.7 7.0 0.00 0.00 0.00 57 1010.3
20260509060018 70 206 3.5 7.0 0.00 0.00 0.00 57 1010.3
20260509055518 70 185 1.7 4.3 0.00 0.00 0.00 57 1010.4
20260509055018 70 180 2.6 5.2 0.00 0.00 0.00 57 1010.4
20260509054517 70 174 1.7 5.2 0.00 0.00 0.00 57 1010.4
20260509054017 70 169 2.6 7.0 0.00 0.00 0.00 56 1010.5
20260509053517 71 166 2.6 9.6 0.00 0.00 0.00 56 1010.4
20260509053016 71 158 5.2 11.3 0.00 0.00 0.00 56 1010.3
20260509052516 71 167 7.0 11.3 0.00 0.00 0.00 55 1010.4
20260509052017 71 229 4.3 9.6 0.00 0.00 0.00 55 1010.5
20260509051518 72 198 6.1 10.4 0.00 0.00 0.00 53 1010.4
20260509051117 72 198 6.1 10.4 0.00 0.00 0.00 53 1010.5
20260509050520 72 181 4.3 10.4 0.00 0.00 0.00 53 1010.5
20260509050017 72 218 5.2 8.7 0.00 0.00 0.00 53 1010.6
20260509045520 72 212 4.3 9.6 0.00 0.00 0.00 53 1010.6
20260509045016 72 196 4.3 8.7 0.00 0.00 0.00 53 1010.5
20260509044516 72 191 3.5 8.7 0.00 0.00 0.00 53 1010.6
20260509044016 73 191 3.5 8.7 0.00 0.00 0.00 53 1010.6
20260509043519 73 190 4.3 8.7 0.00 0.00 0.00 53 1010.5
20260509043015 73 224 6.1 8.7 0.00 0.00 0.00 54 1010.6
20260509042515 73 221 5.2 8.7 0.00 0.00 0.00 54 1010.6
20260509042017 72 215 5.2 8.7 0.00 0.00 0.00 54 1010.6
20260509041515 72 207 3.5 5.2 0.00 0.00 0.00 55 1010.6
20260509040514 71 185 3.5 6.1 0.00 0.00 0.00 55 1010.7
20260509040014 71 201 1.7 4.3 0.00 0.00 0.00 56 1010.6
20260509035518 71 199 2.6 4.3 0.00 0.00 0.00 56 1010.5
20260509035016 71 220 1.7 3.5 0.00 0.00 0.00 55 1010.5
20260509034535 71 220 0.9 3.5 0.00 0.00 0.00 55 1010.6
20260509034015 71 220 1.7 5.2 0.00 0.00 0.00 55 1010.4
20260509033513 71 222 1.7 6.1 0.00 0.00 0.00 55 1010.2
20260509033014 71 197 4.3 6.1 0.00 0.00 0.00 54 1010.1
20260509032514 71 177 2.6 5.2 0.00 0.00 0.00 54 1009.9
20260509032017 72 117 1.7 6.1 0.00 0.00 0.00 54 1009.7
20260509031513 73 193 0.9 2.6 0.00 0.00 0.00 52 1009.9
20260509030513 73 46 0.9 1.7 0.00 0.00 0.00 52 1009.6
20260509030015 73 46 0.0 1.7 0.00 0.00 0.00 52 1009.5
20260509025514 73 46 0.0 2.6 0.00 0.00 0.00 52 1009.5
20260509025012 73 46 0.0 2.6 0.00 0.00 0.00 51 1009.4
20260509024513 73 46 0.9 2.6 0.00 0.00 0.00 51 1009.5
20260509024013 74 47 0.9 2.6 0.00 0.00 0.00 50 1009.6
20260509023511 74 47 0.0 0.9 0.00 0.00 0.00 50 1009.6
20260509023012 74 47 0.0 4.3 0.00 0.00 0.00 50 1009.6
20260509022512 74 47 0.9 4.3 0.00 0.00 0.00 50 1009.7
20260509022012 75 65 1.7 3.5 0.00 0.00 0.00 49 1009.7
20260509021512 75 71 1.7 3.5 0.00 0.00 0.00 49 1009.9
20260509020516 76 135 1.7 7.8 0.00 0.00 0.00 47 1009.7
20260509020012 76 187 3.5 7.8 0.00 0.00 0.00 47 1009.8
20260509015512 76 190 2.6 3.5 0.00 0.00 0.00 47 1009.8
20260509015011 76 182 1.7 3.5 0.00 0.00 0.00 47 1009.7
20260509014511 77 190 1.7 3.5 0.00 0.00 0.00 46 1009.8
20260509014012 77 181 0.9 5.2 0.00 0.00 0.00 46 1009.7
20260509013515 77 180 1.7 7.0 0.00 0.00 0.00 46 1009.8
20260509013012 77 191 2.6 7.0 0.00 0.00 0.00 45 1009.7
20260509012510 77 211 2.6 7.0 0.00 0.00 0.00 45 1009.5
20260509012010 77 201 3.5 6.1 0.00 0.00 0.00 45 1009.4
20260509011511 78 207 2.6 7.8 0.00 0.00 0.00 45 1009.3
20260509011112 78 193 4.3 7.8 0.00 0.00 0.00 44 1009.3
20260509010509 78 208 4.3 7.8 0.00 0.00 0.00 44 1009.2
20260509010010 78 195 3.5 7.8 0.00 0.00 0.00 44 1009.0
20260509005509 79 195 2.6 7.8 0.00 0.00 0.00 43 1008.9
20260509005010 79 191 3.5 7.0 0.00 0.00 0.00 42 1008.8
20260509004509 79 202 2.6 5.2 0.00 0.00 0.00 42 1008.7
20260509004009 79 192 1.7 4.3 0.00 0.00 0.00 42 1008.7
20260509003509 79 175 1.7 4.3 0.00 0.00 0.00 41 1008.7
20260509003010 79 234 0.9 2.6 0.00 0.00 0.00 41 1008.8
20260509002511 79 234 0.9 2.6 0.00 0.00 0.00 41 1008.8
20260509002008 79 234 0.9 1.7 0.00 0.00 0.00 41 1008.8
20260509001508 79 235 0.9 1.7 0.00 0.00 0.00 41 1009.1
20260509000511 79 234 0.9 5.2 0.00 0.00 0.00 41 1009.1
20260509000011 79 234 1.7 5.2 0.00 0.00 0.00 41 1009.1
20260508235511 79 210 2.6 5.2 0.00 0.00 0.00 40 1008.9
20260508235011 79 220 1.7 3.5 0.00 0.00 0.00 40 1008.8
20260508234511 79 208 1.7 3.5 0.00 0.00 0.00 40 1008.6
20260508234011 80 207 1.7 3.5 0.00 0.00 0.00 40 1008.5
20260508233510 80 195 1.7 3.5 0.00 0.00 0.00 39 1008.4
20260508233010 80 166 0.9 3.5 0.00 0.00 0.00 40 1008.4
20260508232510 80 160 0.9 3.5 0.00 0.00 0.00 39 1008.4
20260508232012 80 164 1.7 3.5 0.00 0.00 0.00 39 1008.4
20260508231510 80 187 0.9 3.5 0.00 0.00 0.00 39 1008.4
20260508230510 80 193 1.7 4.3 0.00 0.00 0.00 39 1008.1
20260508230006 80 189 1.7 4.3 0.00 0.00 0.00 39 1008.2
20260508225509 80 177 1.7 3.5 0.00 0.00 0.00 39 1008.1
20260508225006 80 211 0.0 1.7 0.00 0.00 0.00 39 1008.1
20260508224510 80 176 0.0 2.6 0.00 0.00 0.00 39 1008.1
20260508224009 80 177 1.7 3.5 0.00 0.00 0.00 38 1007.9
20260508223504 80 181 1.7 3.5 0.00 0.00 0.00 39 1008.0
20260508223004 80 152 1.7 3.5 0.00 0.00 0.00 39 1008.0
20260508222503 80 144 1.7 3.5 0.00 0.00 0.00 39 1008.0
20260508222002 81 142 1.7 4.3 0.00 0.00 0.00 39 1008.2
20260508221505 80 203 0.9 3.5 0.00 0.00 0.00 39 1008.3
20260508220600 80 273 0.9 4.3 0.00 0.00 0.00 39 1008.5
20260508220501 80 273 0.0 4.3 0.00 0.00 0.00 39 1008.5
20260508215600 80 203 2.6 7.0 0.00 0.00 0.00 39 1008.6
20260508215059 80 39 0.9 5.2 0.00 0.00 0.00 40 1008.6
20260508214608 80 48 1.7 5.2 0.00 0.00 0.00 41 1008.6
20260508214057 80 189 1.7 5.2 0.00 0.00 0.00 41 1008.8
20260508213556 79 49 3.5 5.2 0.00 0.00 0.00 41 1008.8
20260508213055 79 150 0.9 4.3 0.00 0.00 0.00 43 1008.8
20260508212555 78 285 1.7 5.2 0.00 0.00 0.00 44 1008.7
20260508212055 78 218 2.6 5.2 0.00 0.00 0.00 44 1008.9
20260508211555 78 256 2.6 6.1 0.00 0.00 0.00 44 1009.0
20260508211153 78 251 2.6 7.0 0.00 0.00 0.00 44 1009.1
20260508210557 78 251 2.6 7.0 0.00 0.00 0.00 44 1009.1
20260508210055 79 224 4.3 7.0 0.00 0.00 0.00 43 1009.3
20260508205552 78 153 0.9 5.2 0.00 0.00 0.00 46 1009.3
20260508205050 77 238 1.7 5.2 0.00 0.00 0.00 47 1009.4
20260508204551 77 185 2.6 7.0 0.00 0.00 0.00 47 1009.4
20260508204048 77 99 1.7 6.1 0.00 0.00 0.00 48 1009.4
20260508203554 76 143 0.0 8.7 0.00 0.00 0.00 48 1009.6
20260508203047 76 139 3.5 8.7 0.00 0.00 0.00 48 1009.8
20260508202546 76 156 2.6 5.2 0.00 0.00 0.00 48 1009.8
20260508202044 75 35 1.7 4.3 0.00 0.00 0.00 49 1010.1
20260508201544 75 258 2.6 5.2 0.00 0.00 0.00 51 1010.1
20260508201144 74 127 2.6 6.1 0.00 0.00 0.00 51 1010.2
20260508200542 74 202 1.7 6.1 0.00 0.00 0.00 51 1010.3
20260508200044 74 195 2.6 7.8 0.00 0.00 0.00 51 1010.4
20260508195541 74 39 3.5 7.8 0.00 0.00 0.00 51 1010.5
20260508195039 74 60 4.3 7.0 0.00 0.00 0.00 52 1010.6
20260508194539 73 117 2.6 5.2 0.00 0.00 0.00 52 1010.6
20260508194038 73 193 1.7 5.2 0.00 0.00 0.00 53 1010.8
20260508193537 73 204 2.6 5.2 0.00 0.00 0.00 52 1010.8
20260508193045 73 158 3.5 5.2 0.00 0.00 0.00 53 1010.9
20260508192535 72 144 0.9 4.3 0.00 0.00 0.00 54 1010.9
20260508192038 72 90 0.9 5.2 0.00 0.00 0.00 54 1011.0
20260508191545 71 85 1.7 4.3 0.00 0.00 0.00 56 1011.1
20260508191132 71 85 1.7 4.3 0.00 0.00 0.00 56 1011.3
20260508190535 71 101 2.6 5.2 0.00 0.00 0.00 56 1011.3
20260508190049 71 234 0.9 7.0 0.00 0.00 0.00 56 1011.4
20260508185536 70 127 1.7 5.2 0.00 0.00 0.00 56 1011.4
20260508185031 70 208 1.7 5.2 0.00 0.00 0.00 57 1011.5
20260508184534 69 192 2.6 6.1 0.00 0.00 0.00 57 1011.6
20260508184031 69 159 1.7 4.3 0.00 0.00 0.00 57 1011.8
20260508183527 68 154 0.9 4.3 0.00 0.00 0.00 58 1011.9
20260508183035 68 178 2.6 7.8 0.00 0.00 0.00 59 1012.1
20260508182524 67 162 3.5 7.8 0.00 0.00 0.00 59 1012.1
20260508182024 67 199 2.6 5.2 0.00 0.00 0.00 59 1012.1
20260508181524 67 191 2.6 5.2 0.00 0.00 0.00 59 1012.2
20260508181124 66 160 2.6 8.7 0.00 0.00 0.00 60 1012.2
20260508180521 66 175 2.6 8.7 0.00 0.00 0.00 60 1012.4
20260508180020 66 159 3.5 8.7 0.00 0.00 0.00 60 1012.6
20260508175518 66 213 2.6 7.8 0.00 0.00 0.00 60 1012.7
20260508175018 65 237 1.7 4.3 0.00 0.00 0.00 60 1012.7
20260508174518 65 212 2.6 7.0 0.00 0.00 0.00 60 1012.7
20260508174017 65 243 3.5 8.7 0.00 0.00 0.00 60 1012.9
20260508173517 65 227 5.2 8.7 0.00 0.00 0.00 60 1013.0
20260508173016 65 209 3.5 7.8 0.00 0.00 0.00 60 1012.9
20260508172517 65 254 3.5 7.0 0.00 0.00 0.00 60 1013.0
20260508172014 65 198 2.6 6.1 0.00 0.00 0.00 61 1013.1
20260508171517 65 275 3.5 6.1 0.00 0.00 0.00 62 1013.1
20260508171114 64 231 1.7 4.3 0.00 0.00 0.00 62 1013.2
20260508170513 64 232 1.7 4.3 0.00 0.00 0.00 62 1013.1
20260508170013 64 199 2.6 6.1 0.00 0.00 0.00 62 1013.1
20260508165512 64 215 2.6 6.1 0.00 0.00 0.00 62 1013.1
20260508165015 64 185 2.6 5.2 0.00 0.00 0.00 62 1013.1
20260508164521 64 154 2.6 7.0 0.00 0.00 0.00 62 1013.1
20260508164011 64 179 2.6 7.0 0.00 0.00 0.00 63 1013.2
20260508163509 64 197 2.6 7.0 0.00 0.00 0.00 63 1013.2
20260508163014 63 195 2.6 5.2 0.00 0.00 0.00 63 1013.3
20260508162509 63 218 1.7 7.8 0.00 0.00 0.00 63 1013.3
20260508162008 63 196 4.3 7.8 0.00 0.00 0.00 63 1013.3
20260508161510 63 187 3.5 7.8 0.00 0.00 0.00 63 1013.4
20260508161108 63 208 4.3 7.8 0.00 0.00 0.00 63 1013.5
20260508160511 63 203 3.5 7.8 0.00 0.00 0.00 63 1013.3
20260508160011 63 206 4.3 9.6 0.00 0.00 0.00 63 1013.5
20260508155512 63 176 6.1 9.6 0.00 0.00 0.00 63 1013.3
20260508155010 63 192 5.2 9.6 0.00 0.00 0.00 63 1013.4
20260508154510 63 204 7.0 9.6 0.00 0.00 0.00 63 1013.3
20260508154010 63 196 4.3 11.3 0.00 0.00 0.00 63 1013.4
20260508153509 63 202 7.0 11.3 0.00 0.00 0.00 63 1013.5
20260508153019 63 185 4.3 9.6 0.00 0.00 0.00 63 1013.4
20260508152514 63 202 5.2 9.6 0.00 0.00 0.00 63 1013.4
20260508152013 63 201 4.3 8.7 0.00 0.00 0.00 64 1013.4
20260508151508 63 187 3.5 8.7 0.00 0.00 0.00 64 1013.5
20260508151109 62 160 5.2 11.3 0.00 0.00 0.00 67 1013.5
20260508150502 62 188 6.1 11.3 0.00 0.00 0.00 67 1013.5
20260508150004 62 188 4.3 9.6 0.00 0.00 0.00 70 1013.4
20260508145601 62 139 5.2 9.6 0.00 0.00 0.00 72 1013.4
20260508145059 61 208 3.5 9.6 0.00 0.00 0.00 75 1013.7
20260508144609 61 186 6.1 9.6 0.00 0.00 0.00 75 1013.5
20260508144101 61 189 4.3 7.8 0.00 0.00 0.00 75 1013.6
20260508143557 61 203 4.3 8.7 0.00 0.00 0.00 75 1013.6
20260508143059 60 149 3.5 8.7 0.00 0.00 0.00 75 1013.6
20260508142555 60 205 3.5 7.8 0.00 0.00 0.00 75 1013.7